Location: Brookview Estates
(36.0476°N, 86.6931°W)
Time: 02:10:11
(UTC+00:00)

Cosmos 2184 Rocket - Pass Details

Date: 30 March 2020
Orbit: 958 x 1003 km, 82.9° (Epoch: 03 June)

Event Time Altitude Azimuth Distance (km) Brightness Sun altitude
Rises 02:22:40 0° 354° (N) 3,715 7.5 -27.1°
Reaches altitude 10° 02:25:12 10° 355° (N) 2,757 6.7 -27.5°
Maximum altitude 02:31:33 83° 83° (E) 993 3.8 -28.6°
Enters shadow 02:31:45 81° 120° (ESE) 996 3.8 -28.7°
